Location: Ellerstadt
(49.4644°N, 8.2615°E)
Time: 09:37:51
(UTC+00:00)

Meteor 1-20 Rocket - Visible Passes

Search period start: 13 June 2021 00:00
Search period end: 23 June 2021 00:00
Orbit: 818 x 893 km, 81.2° (Epoch: 12 June)

Date Brightness Start Highest point End Pass type
(mag) Time Alt. Az. Time Alt. Az. Time Alt. Az.
20 Jun 6.6 02:29:42 10° SE 02:33:32 20° E 02:37:20 10° NE visible
21 Jun 6.6 02:19:20 10° SE 02:23:01 19° E 02:26:41 10° NE visible
22 Jun 6.6 02:08:58 10° SE 02:12:30 18° E 02:16:01 10° NE visible
